User: anonymous   Login
Location: Unspecified
(0.0000°N, 0.0000°E)
Time: 07:37:09
(UTC+00:00)
Language:

LQSAT - Orbit

View from above orbital plane
View from above orbital plane
View from above satellite
View from above satellite

Ground track
Ground track

The orbit data is extracted from the following two-line orbital elements,

1 40958U 15057A   17290.18354980  .00000072  00000-0  18917-4 0  9990
2 40958  97.9681   3.3088 0019229  39.1168 321.1436 14.72993236109074
Epoch (UTC): 17 October 2017 04:24:18
Eccentricity: 0.0019229
inclination: 97.9681°
perigee height: 638 km
apogee height: 665 km
right ascension of ascending node: 3.3088°
argument of perigee: 39.1168°
revolutions per day: 14.72993236
mean anomaly at epoch: 321.1436°
orbit number at epoch: 10907

The dashed part of the orbit path shows where the satellite is in the earth's shadow,  

DLR